Regional Weather Roundup
Issued by NWS

Home | Current Version | Previous Version | Text Only | Print | Product List | Glossary On
Versions: 1 2 3 4 5 6 7 8 9 10 11 12 13 14 15 16 17 18 19 20 21 22 23 24 25 26 27 28 29 30 31 32 33 34 35 36 37 38 39 40 41 42 43 44 45 46 47 48 49 50
000
ASUS43 KTOP 181459
RWRKS

WEATHER ROUNDUP FOR KANSAS
NATIONAL WEATHER SERVICE GOODLAND KS
900 AM CST SAT NOV 18 2017

NOTE:  "FAIR" INDICATES FEW OR NO CLOUDS BELOW 12,000 FEET WITH NO
SIGNIFICANT WEATHER AND/OR OBSTRUCTIONS TO VISIBILITY.

KSZ001>006-013>018-027>032-041>047-181600-
NORTHWEST KANSAS

CITY           SKY/WX    TMP DP  RH WIND       PRES   REMARKS
GOODLAND       SUNNY     36  25  64 NW20G28   30.18R WCI  25
HAYS           CLOUDY    40  36  86 NW18G26   30.08R WCI  31
HILL CITY      MOSUNNY   42  37  82 NW22G31   30.11R
RUSSELL        LGT RAIN  39  38  96 NW17      30.05R WCI  30
$$

KSZ061>065-074>080-084>089-181600-
SOUTHWEST KANSAS

CITY           SKY/WX    TMP DP  RH WIND       PRES   REMARKS
DODGE CITY     LGT RAIN  41  37  86 N17G31    30.10R
GARDEN CITY    SUNNY     41  33  73 NW23G33   30.15R
GREAT BEND     LGT RAIN  39  36  89 N22G31    30.07R WCI  29
LIBERAL        SUNNY     44  29  55 N30       30.16R
$$

KSZ066>073-081>083-090>101-181600-
SOUTHEAST KANSAS

CITY           SKY/WX    TMP DP  RH WIND       PRES   REMARKS
CHANUTE        LGT RAIN  46  43  89 N22G30    29.81R
COFFEYVILLE    CLOUDY    49  43  80 N25G39    29.80R
HUTCHINSON     CLOUDY    41  38  89 N20G29    29.99R
MEDICINE LODGE   N/A     44  37  76 N28G45    30.02R
NEWTON         CLOUDY    41  37  86 NW23G31   29.96R
PARSONS        CLOUDY    48  44  86 NW24G33   29.81R
WICHITA INTL   CLOUDY    44  39  82 N30G39    29.95R
WICHITA JABRA  CLOUDY    43  39  86 N30G38    29.93R
WICHITA MCCONL CLOUDY    44  37  76 N26G35    29.93R
WINFIELD       CLOUDY    47  42  83 N26G33    29.92R
$$

KSZ007>012-019>026-033>040-048>060-102>105-181600-
NORTHEAST KANSAS

CITY           SKY/WX    TMP DP  RH WIND       PRES   REMARKS
CONCORDIA      CLOUDY    42  36  79 NW17G28   29.97R
EMPORIA        LGT RAIN  43  37  79 N25G36    29.87R
LAWRENCE       LGT RAIN  44  41  89 NW16G22   29.80R
MANHATTAN      CLOUDY    44  35  70 N15G25    29.92R
OLATHE IND     LGT RAIN  42  41  96 NW23G32   29.77R
OLATHE EXE     LGT RAIN  42  40  92 N17G29    29.74R
SALINA         CLOUDY    45  38  76 NW18G28   29.98R
TOPEKA BILLARD LGT RAIN  44  40  85 NW20G32   29.84R
TOPEKA FORBES  LGT RAIN  45  39  79 NW23G32   29.83R
$$




USA.gov is the U.S. government's official web portal to all federal, state and local government web resources and services.